Weather History for St. Francis, KS

Change the Weather History Date:

Tuesday, April 30, 2013

  Actual Average Record
Temperature  
Mean Temperature 59 °F -  
Max Temperature 71 °F 69 °F 71 °F (2013)
Min Temperature 48 °F 39 °F 35 °F (2014)
Degree Days  
Heating Degree Days 6    
Growing Degree Days 9 (Base 50)    
Moisture  
Dew Point 34 °F    
Average Humidity 40    
Maximum Humidity 67    
Minimum Humidity 23    
Precipitation  
Precipitation 0.00 in - - ()
Sea Level Pressure  
Sea Level Pressure 29.72 in    
Wind  
Wind Speed 13 mph (NNE)    
Max Wind Speed 26 mph    
Max Gust Speed 37 mph    
Visibility 10 miles    
Events      
Averages and records for this station are not official NWS values.
T = Trace of Precipitation, MM = Missing Value Source: NWS Daily Summary

Daily Weather History Graph

Daily Weather History Graph

Search for Another Location

Airport:

Trip Planner

Search our weather history database for the weather conditions in past years. The results will help you decide how hot, cold, wet, or windy it might be!

Date:

Astronomy

Apr. 30, 2013 Rise Set
Actual Time 6:48 AM CDT 8:40 PM CDT
Civil Twilight 6:19 AM CDT 9:09 PM CDT
Nautical Twilight 5:44 AM CDT 9:45 PM CDT
Astronomical Twilight 5:06 AM CDT 10:23 PM CDT
Moon 1:05 AM CDT (4/30) 11:19 AM CDT (4/30)
Length of Visible Light 14h 50m
Length of Day
13h 52m
Waning Gibbous, 70% of the Moon is Illuminated
Apr 30
Waning Gibbous
May 2
Last Quarter
May 9
New
May 17
First Quarter
May 24
Full

Hourly Weather History & Observations

Time (CDT) Temp. Dew Point Humidity Pressure Visibility Wind Dir Wind Speed Gust Speed Precip Events Conditions
12:15 AM 60.6 °F 31.6 °F 34% 29.56 in 10.0 mi SW 9.2 mph - N/A   Clear
12:35 AM 62.2 °F 30.0 °F 30% 29.56 in 10.0 mi SSW 10.4 mph - N/A   Clear
12:55 AM 60.4 °F 30.4 °F 32% 29.56 in 10.0 mi SSW 11.5 mph - N/A   Clear
1:15 AM 61.0 °F 30.9 °F 32% 29.55 in 10.0 mi SSW 10.4 mph - N/A   Clear
1:35 AM 62.8 °F 30.2 °F 29% 29.55 in 10.0 mi SW 8.1 mph - N/A   Clear
1:55 AM 58.3 °F 32.0 °F 37% 29.55 in 10.0 mi SSW 9.2 mph - N/A   Clear
2:15 AM 57.9 °F 32.2 °F 38% 29.55 in 10.0 mi SW 8.1 mph - N/A   Clear
2:35 AM 54.9 °F 32.9 °F 43% 29.55 in 10.0 mi South 9.2 mph - N/A   Clear
2:55 AM 56.3 °F 32.0 °F 40% 29.55 in 10.0 mi SSW 8.1 mph - N/A   Clear
3:15 AM 56.7 °F 32.0 °F 39% 29.55 in 10.0 mi SSW 9.2 mph - N/A   Clear
3:35 AM 54.3 °F 32.7 °F 44% 29.55 in 10.0 mi South 4.6 mph - N/A   Clear
3:55 AM 56.5 °F 32.0 °F 39% 29.54 in 10.0 mi SW 6.9 mph - N/A   Clear
4:15 AM 54.9 °F 32.0 °F 42% 29.55 in 10.0 mi WNW 6.9 mph - N/A   Clear
4:35 AM 54.7 °F 32.5 °F 43% 29.56 in 10.0 mi NW 5.8 mph - N/A   Clear
4:55 AM 52.9 °F 33.1 °F 47% 29.55 in 10.0 mi WNW 9.2 mph - N/A   Clear
5:15 AM 53.8 °F 32.9 °F 45% 29.56 in 10.0 mi NW 8.1 mph - N/A   Clear
5:35 AM 55.2 °F 32.2 °F 42% 29.57 in 10.0 mi NNW 8.1 mph - N/A   Clear
5:55 AM 57.9 °F 30.6 °F 35% 29.59 in 10.0 mi NNW 9.2 mph - N/A   Clear
6:15 AM 59.2 °F 29.3 °F 32% 29.62 in 10.0 mi NNW 11.5 mph 17.3 mph N/A   Clear
6:35 AM 55.0 °F 36.1 °F 49% 29.66 in 10.0 mi North 26.5 mph 34.5 mph N/A   Clear
6:55 AM 50.9 °F 37.6 °F 60% 29.68 in 10.0 mi North 20.7 mph 29.9 mph N/A   Clear
7:15 AM 49.6 °F 37.8 °F 64% 29.69 in 10.0 mi North 19.6 mph 26.5 mph N/A   Clear
7:35 AM 49.1 °F 38.3 °F 66% 29.70 in 10.0 mi North 19.6 mph 24.2 mph N/A   Clear
7:55 AM 48.9 °F 38.5 °F 67% 29.74 in 10.0 mi North 23.0 mph 28.8 mph N/A   Clear
8:15 AM 50.0 °F 38.5 °F 65% 29.74 in 10.0 mi North 19.6 mph 27.6 mph N/A   Clear
8:35 AM 50.9 °F 38.5 °F 62% 29.75 in 10.0 mi North 21.9 mph 29.9 mph N/A   Clear
8:55 AM 51.6 °F 37.9 °F 60% 29.76 in 10.0 mi North 20.7 mph 31.1 mph N/A   Clear
9:15 AM 51.1 °F 37.8 °F 60% 29.78 in 10.0 mi North 20.7 mph 26.5 mph N/A   Clear
9:35 AM 50.9 °F 37.9 °F 61% 29.78 in 10.0 mi North 18.4 mph 25.3 mph N/A   Clear
9:55 AM 51.8 °F 37.6 °F 58% 29.77 in 10.0 mi NNE 18.4 mph - N/A   Clear
10:15 AM 52.2 °F 37.4 °F 57% 29.77 in 10.0 mi North 17.3 mph - N/A   Clear
10:35 AM 52.7 °F 37.4 °F 56% 29.79 in 10.0 mi North 16.1 mph 21.9 mph N/A   Clear
10:55 AM 56.3 °F 38.1 °F 51% 29.79 in 10.0 mi NNE 15.0 mph 20.7 mph N/A   Clear
11:15 AM 56.1 °F 36.7 °F 48% 29.78 in 10.0 mi NNE 21.9 mph - N/A   Clear
11:35 AM 56.3 °F 36.0 °F 46% 29.79 in 10.0 mi NNE 18.4 mph - N/A   Clear
11:55 AM 58.3 °F 36.1 °F 44% 29.79 in 10.0 mi NE 17.3 mph 24.2 mph N/A   Clear
12:15 PM 60.8 °F 35.6 °F 39% 29.80 in 10.0 mi NNE 12.7 mph - N/A   Clear
12:35 PM 61.9 °F 36.1 °F 38% 29.79 in 10.0 mi NNE 12.7 mph 18.4 mph N/A   Clear
12:55 PM 62.1 °F 35.8 °F 38% 29.79 in 10.0 mi NNE 16.1 mph 20.7 mph N/A   Clear
1:15 PM 64.0 °F 35.6 °F 35% 29.79 in 10.0 mi NNE 15.0 mph 20.7 mph N/A   Clear
1:35 PM 65.7 °F 35.4 °F 33% 29.77 in 10.0 mi NE 12.7 mph 20.7 mph N/A   Clear
1:55 PM 67.3 °F 35.4 °F 31% 29.77 in 10.0 mi NE 15.0 mph 21.9 mph N/A   Clear
2:15 PM 66.9 °F 35.4 °F 31% 29.77 in 10.0 mi NNE 12.7 mph 20.7 mph N/A   Clear
2:35 PM 68.2 °F 35.2 °F 30% 29.77 in 10.0 mi NE 12.7 mph 20.7 mph N/A   Clear
2:55 PM 68.4 °F 34.9 °F 29% 29.76 in 10.0 mi East 12.7 mph 20.7 mph N/A   Clear
3:15 PM 68.9 °F 34.7 °F 28% 29.76 in 10.0 mi NE 12.7 mph - N/A   Clear
3:35 PM 70.2 °F 34.3 °F 27% 29.76 in 10.0 mi NE 17.3 mph 20.7 mph N/A   Clear
3:55 PM 69.1 °F 33.6 °F 27% 29.75 in 10.0 mi NNE 16.1 mph 21.9 mph N/A   Clear
4:15 PM 69.8 °F 34.2 °F 27% 29.75 in 10.0 mi NE 17.3 mph 24.2 mph N/A   Clear
4:35 PM 69.8 °F 34.3 °F 27% 29.75 in 10.0 mi ENE 16.1 mph 20.7 mph N/A   Clear
4:55 PM 69.1 °F 34.3 °F 28% 29.76 in 10.0 mi NNE 18.4 mph 23.0 mph N/A   Clear
5:15 PM 67.1 °F 34.3 °F 30% 29.76 in 10.0 mi NE 13.8 mph 23.0 mph N/A   Clear
5:35 PM 67.3 °F 34.3 °F 30% 29.76 in 10.0 mi ENE 16.1 mph 23.0 mph N/A   Clear
5:55 PM 66.4 °F 34.7 °F 31% 29.76 in 10.0 mi NE 18.4 mph - N/A   Clear
6:15 PM 65.5 °F 34.7 °F 32% 29.75 in 10.0 mi NE 18.4 mph - N/A   Clear
6:35 PM 65.3 °F 34.5 °F 32% 29.76 in 10.0 mi NE 16.1 mph 23.0 mph N/A   Clear
6:55 PM 64.8 °F 34.9 °F 33% 29.78 in 10.0 mi NE 16.1 mph 21.9 mph N/A   Clear
7:15 PM 63.9 °F 34.7 °F 34% 29.77 in 10.0 mi NE 19.6 mph 23.0 mph N/A   Clear
7:35 PM 63.5 °F 34.5 °F 34% 29.79 in 10.0 mi NE 16.1 mph - N/A   Clear
7:55 PM 62.6 °F 33.6 °F 34% 29.79 in 10.0 mi NE 16.1 mph 25.3 mph N/A   Clear
8:15 PM 61.7 °F 33.3 °F 34% 29.79 in 10.0 mi NE 16.1 mph 20.7 mph N/A   Clear
8:35 PM 61.2 °F 32.0 °F 33% 29.79 in 10.0 mi NE 16.1 mph 21.9 mph N/A   Clear
8:55 PM 60.1 °F 32.0 °F 35% 29.79 in 10.0 mi NE 17.3 mph 24.2 mph N/A   Clear
9:15 PM 59.9 °F 31.8 °F 35% 29.78 in 10.0 mi ENE 18.4 mph 24.2 mph N/A   Clear
9:35 PM 59.7 °F 32.0 °F 35% 29.80 in 10.0 mi NE 19.6 mph 25.3 mph N/A   Clear
9:55 PM 59.0 °F 31.6 °F 36% 29.81 in 10.0 mi NE 16.1 mph - N/A   Clear
10:15 PM 59.0 °F 32.0 °F 36% 29.82 in 10.0 mi NE 17.3 mph 25.3 mph N/A   Mostly Cloudy
10:35 PM 59.0 °F 32.0 °F 36% 29.84 in 10.0 mi NE 18.4 mph 25.3 mph N/A   Overcast
10:55 PM 59.0 °F 31.8 °F 36% 29.86 in 10.0 mi NE 24.2 mph 27.6 mph N/A   Overcast
11:15 PM 58.6 °F 31.3 °F 36% 29.88 in 10.0 mi NNE 17.3 mph 26.5 mph N/A   Overcast
11:35 PM 58.1 °F 26.1 °F 29% 29.89 in 10.0 mi NE 25.3 mph 32.2 mph N/A   Overcast
11:55 PM 56.8 °F 18.7 °F 23% 29.88 in 10.0 mi NE 26.5 mph 36.8 mph N/A   Overcast